Weather History for KVPC - October, 2013

Change the Weather History Date:

Tuesday, October 8, 2013

  Actual Average Record
Temperature  
Mean Temperature 66 °F 63 °F  
Max Temperature 77 °F 75 °F 89 °F (2007)
Min Temperature 55 °F 51 °F 37 °F (2000)
Degree Days  
Heating Degree Days 0 4  
Month to date heating degree days 1 24  
Since 1 July heating degree days 2 42  
Cooling Degree Days 1 2  
Month to date cooling degree days 36 18  
Year to date cooling degree days 1427 1490  
Growing Degree Days 15 (Base 50)    
Moisture  
Dew Point 52 °F    
Average Humidity 65    
Maximum Humidity 83    
Minimum Humidity 46    
Precipitation  
Precipitation 0.00 in 0.12 in 1.43 in (2008)
Month to date precipitation 0.90 1.11  
Year to date precipitation 39.32  
Snow  
Snow 0.00 in - - ()
Month to date snowfall 0.0  
Since 1 July snowfall 0.0  
Since 1 September snowfall 0.0  
Snow Depth 0.00 in    
Sea Level Pressure  
Sea Level Pressure 30.05 in    
Wind  
Wind Speed 4 mph (ENE)    
Max Wind Speed 13 mph    
Max Gust Speed 17 mph    
Visibility 10 miles    
Events      
T = Trace of Precipitation, MM = Missing Value Source: NWS Daily Summary

Daily Weather History Graph

Daily Weather History Graph

Search for Another Location

Airport or City:

Trip Planner

Search our weather history database for the weather conditions in past years. The results will help you decide how hot, cold, wet, or windy it might be!

Date:

Astronomy

Oct. 08, 2013 Rise Set
Actual Time 7:39 AM EDT 7:13 PM EDT
Civil Twilight 7:14 AM EDT 7:38 PM EDT
Nautical Twilight 6:45 AM EDT 8:07 PM EDT
Astronomical Twilight 6:16 AM EDT 8:36 PM EDT
Moon 11:22 AM EDT (10/8) 9:59 PM EDT (10/8)
Length of Visible Light 12h 24m
Length of Day
11h 34m
Waxing Crescent, 16% of the Moon is Illuminated
Oct 8
Waxing Crescent
Oct 11
First Quarter
Oct 18
Full
Oct 26
Last Quarter
Nov 3
New

Hourly Weather History & Observations

Time (EDT) Temp. Dew Point Humidity Pressure Visibility Wind Dir Wind Speed Gust Speed Precip Events Conditions
12:53 AM 57.0 °F 48.9 °F 74% 29.98 in 10.0 mi NNW 3.5 mph - N/A   Mostly Cloudy
1:15 AM 57.2 °F 48.2 °F 72% 30.00 in 10.0 mi Calm Calm - N/A   Mostly Cloudy
1:53 AM 57.0 °F 50.0 °F 77% 29.98 in 10.0 mi Calm Calm - N/A   Mostly Cloudy
2:53 AM 55.9 °F 48.9 °F 77% 29.99 in 10.0 mi Calm Calm - N/A   Mostly Cloudy
3:53 AM 55.9 °F 48.9 °F 77% 29.98 in 10.0 mi Calm Calm - N/A   Scattered Clouds
4:53 AM 55.9 °F 48.9 °F 77% 29.99 in 10.0 mi Variable 3.5 mph - N/A   Overcast
5:53 AM 55.0 °F 48.9 °F 80% 30.00 in 10.0 mi North 3.5 mph - N/A   Overcast
6:53 AM 55.0 °F 48.9 °F 80% 30.01 in 10.0 mi North 5.8 mph - N/A   Overcast
7:53 AM 55.0 °F 48.9 °F 80% 30.04 in 10.0 mi NNE 3.5 mph - N/A   Overcast
8:53 AM 55.9 °F 50.0 °F 80% 30.06 in 10.0 mi NNW 3.5 mph - N/A   Overcast
9:53 AM 57.9 °F 51.1 °F 78% 30.08 in 10.0 mi Calm Calm - N/A   Overcast
10:53 AM 62.1 °F 53.1 °F 72% 30.08 in 10.0 mi Calm Calm - N/A   Overcast
11:53 AM 69.1 °F 52.0 °F 54% 30.07 in 10.0 mi East 9.2 mph - N/A   Scattered Clouds
12:53 PM 73.0 °F 54.0 °F 51% 30.06 in 10.0 mi Variable 5.8 mph - N/A   Partly Cloudy
1:53 PM 75.0 °F 55.0 °F 50% 30.04 in 10.0 mi East 8.1 mph 17.3 mph N/A   Clear
2:53 PM 75.9 °F 54.0 °F 46% 30.04 in 10.0 mi ESE 11.5 mph 17.3 mph N/A   Clear
3:53 PM 75.9 °F 55.0 °F 48% 30.04 in 10.0 mi Variable 6.9 mph - N/A   Clear
4:53 PM 75.0 °F 54.0 °F 48% 30.04 in 10.0 mi ENE 5.8 mph - N/A   Scattered Clouds
5:53 PM 73.9 °F 54.0 °F 50% 30.05 in 10.0 mi East 6.9 mph - N/A   Scattered Clouds
6:53 PM 70.0 °F 54.0 °F 57% 30.07 in 10.0 mi East 3.5 mph - N/A   Clear
7:53 PM 66.9 °F 55.9 °F 68% 30.09 in 10.0 mi Calm Calm - N/A   Overcast
8:53 PM 66.9 °F 55.9 °F 68% 30.11 in 10.0 mi ESE 5.8 mph - N/A   Overcast
9:53 PM 64.9 °F 55.0 °F 70% 30.12 in 10.0 mi East 5.8 mph - N/A   Clear
10:53 PM 64.0 °F 54.0 °F 70% 30.12 in 10.0 mi Variable 5.8 mph - N/A   Clear
11:53 PM 63.0 °F 54.0 °F 72% 30.12 in 10.0 mi Variable 4.6 mph - N/A   Clear